Location: Gersoppa
(14.2282°N, 74.8115°E)
Time: 13:52:45
(UTC+00:00)

Daily predictions for brighter satellites

Satellite Brightness Start Highest point End
(mag) Time Altitude Azimuth Time Altitude Azimuth Time Altitude Azimuth
Aureole 3 Rocket 4.3 12:47:50 10° ESE 12:49:53 15° E 12:52:12 10° NE
Cosmos 2279 Rocket 4.3 12:44:29 10° S 12:50:42 77° W 12:56:54 10° N
Genesis I 4.0 12:49:19 10° S 12:52:42 32° ESE 12:56:09 10° NE
CZ-4C R/B 4.3 12:51:27 10° NNE 12:56:48 18° ENE 13:02:21 10° E
Cosmos 921 Rocket 3.6 12:54:11 10° SSW 12:58:15 56° WNW 13:02:21 10° N
PSLV R/B 3.7 12:55:08 10° SSE 12:58:44 58° ENE 13:02:20 10° N
CORIOLIS 4.2 12:53:23 10° SSE 12:58:45 87° ENE 13:04:09 10° NNW
Cosmos 1697 Rocket 2.7 12:55:34 10° NNW 13:01:11 84° ENE 13:06:48 10° SSE
Cosmos 1666 2.9 13:00:31 10° NNE 13:04:02 43° E 13:07:35 10° SSE
Cosmos 1980 Rocket 2.6 13:01:15 10° N 13:06:27 38° ENE 13:11:36 10° SE
USA 276 3.3 13:05:40 10° N 13:08:10 22° NE 13:10:41 10° ESE
MOS 1-B 4.3 13:05:39 10° SSE 13:11:19 62° ENE 13:17:00 10° N
YAOGAN 1 4.4 13:10:02 10° E 13:10:44 11° E 13:10:44 11° E
SL-27 R/B 4.2 13:10:28 10° SE 13:12:26 15° E 13:13:12 14° E
Cosmos 2369 3.7 13:07:15 10° N 13:12:54 63° ENE 13:18:29 10° SSE
Tiangong 3.9 13:12:27 10° NW 13:13:12 11° NW 13:13:58 10° NNW
SMAP 4.4 13:10:04 10° S 13:14:28 43° W 13:18:53 10° NNW
ARGOS 3.6 13:09:50 10° SE 13:14:46 37° ENE 13:19:42 10° N
CZ-4B DEB 4.5 13:11:36 10° S 13:17:07 74° WSW 13:22:37 10° NNW
COSMO-SKYMED 1 4.0 13:15:14 10° N 13:19:16 39° WNW 13:23:19 10° SW
DMSP B5D2-2 4.2 13:15:11 10° NNE 13:20:17 54° ESE 13:25:23 10° S
Meteor 1-5 Rocket 4.2 13:14:32 10° N 13:20:23 70° E 13:26:04 10° SSE
Cosmos 1633 Rocket 3.0 13:20:32 10° N 13:24:54 84° E 13:29:19 10° S
Centaur AC-42 4.1 13:20:48 10° W 13:25:35 50° S 13:48:40 10° ESE
Meteosat 1 Rocket2 3.7 13:24:00 10° W 13:28:10 38° NNW 13:30:22 19° NE
Meteor 1-14 Rocket 4.4 13:22:53 10° N 13:28:49 83° W 13:34:48 10° S
USA 234 4.4 13:27:32 18° ENE 13:29:24 20° NE 13:33:51 10° N
H-2A R/B 2.3 13:24:57 10° S 13:30:14 74° WSW 13:35:23 10° NNW
Delta 2 Rocket 4.0 13:27:30 10° WSW 13:32:01 51° NW 13:34:33 21° NE
Okean O Rocket 1.6 13:28:52 10° SSE 13:33:12 57° ENE 13:37:33 10° N
USA 229 DEB 4.3 13:25:32 10° NNW 13:33:18 76° WSW 13:41:13 10° SSE
USA 229 4.2 13:25:38 10° NNW 13:33:23 77° WSW 13:41:18 10° SSE
NOSS 3-3 (C) 4.5 13:29:28 10° SW 13:34:38 48° WNW 13:40:06 10° N
Cosmos 2278 3.8 13:30:44 10° N 13:36:14 52° ENE 13:41:42 10° SSE
Cosmos 773 Rocket 4.2 13:31:27 10° S 13:36:33 51° ESE 13:40:13 19° NNE
USA 32 4.0 13:33:11 10° S 13:38:24 89° E 13:43:37 10° N
Meteor 1-27 Rocket 3.8 13:34:40 10° S 13:40:14 76° W 13:45:44 10° N
GPS 2-12 Rocket1 2.9 13:38:48 10° W 13:43:17 79° NNW 13:45:03 36° ENE
CZ-4B R/B 3.3 13:41:06 10° S 13:46:36 77° WSW 13:52:00 10° NNW
Cosmos 1933 Rocket 3.7 13:48:07 28° NNE 13:50:03 47° E 13:54:13 10° SSE
Aurora 2 Rocket 3.4 13:49:07 10° WNW 13:54:15 62° NNE 13:57:22 33° E
Cosmos 1544 2.9 13:53:30 25° N 13:55:32 84° E 13:59:10 10° S
Cosmos 1470 Rocket 3.8 13:51:26 10° N 13:55:53 73° W 14:00:19 10° S
Okean 1 3.7 13:52:13 10° SSE 13:55:37 44° ESE 13:55:37 44° ESE
IRAS Rocket 4.4 13:50:48 10° N 13:56:17 71° WNW 14:01:49 10° SSW
Cosmos 1833 4.4 13:51:47 10° SSW 13:57:21 71° WNW 14:01:47 16° N
Cosmos 1655 Rocket 4.0 13:52:59 10° N 13:59:20 87° W 14:05:38 10° S
CRRES 4.2 13:57:25 10° W 13:59:47 64° N 14:00:04 60° NNE
SWIFT 2.2 13:58:24 10° WNW 14:02:38 89° S 14:03:08 68° ESE
DNEPR-1 R/B 3.7 14:02:20 10° SSW 14:07:52 78° ESE 14:08:46 59° NE
SL-24 R/B - RUBIN 2 4.4 14:12:54 10° NW 14:17:02 48° WSW 14:21:20 10° S
Cosmos 2228 Rocket 4.1 14:13:14 10° SSW 14:17:26 45° W 14:19:54 22° NNW
Cosmos 1553 Rocket 3.9 14:11:31 10° S 14:17:44 63° E 14:18:38 56° NE
ATLAS 5 CENTAUR R/B 1.4 14:09:16 10° W 14:18:28 60° NNW 14:18:36 60° N
BREEZE M DEB (TANK) 3.5 14:12:17 10° NW 14:18:21 42° N 14:18:21 42° N
H-2A R/B 3.2 14:18:21 24° NNW 14:20:40 44° WNW 14:24:52 10° SSW
BREEZE-M DEB (TANK) 4.4 14:16:03 10° NNW 14:20:43 32° NNW 14:20:43 32° NNW
GPS 2-15 Rocket1 3.7 14:21:15 10° WNW 14:24:45 47° NW 14:24:45 47° NW
Gbstr 26 Del rocket 4.2 14:24:20 10° SW 14:30:35 51° NW 14:31:34 46° NNW
CZ-4 R/B 2.5 14:29:31 10° S 14:32:49 42° SW 14:32:49 42° SW
Meteor 1-18 Rocket 4.2 14:29:34 10° S 14:35:24 85° W 14:35:41 80° NNW
CZ-4C R/B 3.3 14:37:21 10° NNW 14:45:43 75° WSW 14:54:25 10° SSE
YAOGAN 1 4.3 14:43:34 10° SSW 14:47:21 30° W 14:47:53 29° W
USA 234 4.4 15:14:59 34° NW 15:14:59 34° NW 15:18:26 10° NW
Cosmos 2082 Rocket 4.3 22:17:14 22° ESE 22:17:14 22° ESE 22:19:36 10° SE
Centaur D-1A AC-31 3.9 22:40:41 13° NE 22:40:41 13° NE 22:41:36 10° ENE
ATLAS 5 CENTAUR R/B 4.4 22:45:11 35° SW 22:51:01 48° S 23:49:01 10° ESE
ASTRO E2 4.3 23:14:26 31° ENE 23:14:26 31° ENE 23:16:36 10° ENE
Cosmos 1354 Rocket 4.4 23:08:18 10° S 23:13:27 62° ESE 23:18:39 10° NNE
Centaur AC-72 2.9 23:13:08 48° SW 23:14:49 73° SSE 23:23:53 10° ENE
Cosmos 1464 Rocket 4.2 23:16:05 53° SW 23:16:05 53° SW 23:21:01 10° S
Cosmos 1933 3.9 23:22:00 55° E 23:22:00 55° E 23:25:53 10° SSE
SL-08 R/B 3.9 23:18:20 10° S 23:22:03 47° SSW 23:22:03 47° SSW
YAOGAN 6 3.9 23:24:55 17° NE 23:27:22 39° E 23:30:43 10° S
Cosmos 1814 Rocket 3.8 23:28:12 55° NNW 23:29:23 89° ENE 23:34:34 10° SSE
Delta 168 3.9 23:30:07 46° NNW 23:30:11 46° NNW 23:36:47 10° ENE
Cosmos 1570 Rocket 4.0 23:29:08 37° N 23:31:16 78° ENE 23:36:32 10° SSE
Okean 3 Rocket 3.8 23:32:37 10° S 23:37:06 70° E 23:41:36 10° N
Cosmos 1766 Rocket 3.5 23:33:09 10° S 23:37:30 83° E 23:41:49 10° N
ARIANE DEB (SYLDA) 4.3 23:30:16 22° W 23:39:21 49° SSW 23:44:04 10° ESE
ATLAS 3B R/B 2.4 23:38:21 10° SSW 23:44:46 81° WNW 23:51:18 10° NNE
SL-4 R/B 3.3 23:48:37 21° NNE 23:48:37 21° NNE 23:50:00 10° NNE
OAO 2 Rocket 4.1 23:46:55 33° NNW 23:46:55 33° NNW 23:51:32 10° NE
Hubble Space Telescope 1.0 23:50:54 43° NNW 23:51:55 58° NNE 23:55:58 10° ESE
H-2A R/B 2.5 23:49:25 10° N 23:53:12 82° W 23:57:01 10° SSW
Iridium 2 3.7 23:52:02 10° SSW 23:55:43 53° W 23:56:51 37° NW
